Regional Weather Roundup
Issued by NWS Upton, NY

Current Version | Previous Version | Graphics & Text | Print | Product List | Glossary Off
Versions: 1 2 3 4 5 6 7 8 9 10 11 12 13 14 15 16 17 18 19 20 21 22 23 24 25 26 27

000
ASUS41 KOKX 160908
RWROKX

REGIONAL WEATHER ROUNDUP
NATIONAL WEATHER SERVICE NEW YORK NY
400 AM EST SAT DEC 16 2017

NOTE: "FAIR" INDICATES FEW OR NO CLOUDS BELOW 12,000 FEET WITH NO
SIGNIFICANT WEATHER AND/OR OBSTRUCTIONS TO VISIBILITY.

NYZ071-072-176-178-NJZ106-104-161000-
NEW YORK CITY METRO AREA

CITY           SKY/WX    TMP DP  RH WIND       PRES   REMARKS
Central Park   CLEAR     25  17  72 VRB3      29.97R
Bronx Bot Gard   N/A     27  16  63 W14       29.96S WCI  15
Bronx Lehman C   N/A     27  18  69 W8          N/A  WCI  18
LaGuardia APRT PTCLDY    27  17  66 W21G28    29.96R WCI  13
Queens College   N/A     28  18  64 W13         N/A  WCI  18
Kennedy INTL   PTCLDY    26  18  71 W17G25    29.98R WCI  13
Breezy Point     N/A    N/A N/A N/A W14G24      N/A
Brooklyn Coll    N/A     27  19  74 W12         N/A  WCI  16
Staten Island    N/A     23  19  86 SW3         N/A
Newark/Liberty PTCLDY    22  16  78 SW8       29.98R WCI  12
Teterboro      CLEAR     21  15  78 S8        29.96R WCI  11
$$

NYZ177-179-078>081-161000-
LONG ISLAND NEW YORK

CITY           SKY/WX    TMP DP  RH WIND       PRES   REMARKS
Jones Beach      N/A    N/A N/A N/A W16G22      N/A
Wantagh          N/A     27  19  74 W9          N/A  WCI  17
Matinecock PT    N/A    N/A N/A N/A W24         N/A
Farmingdale    CLEAR     25  17  72 W10       29.95R WCI  15
MacArthur/ISP  CLEAR     19  16  88 W7        29.93R WCI  10
Shirley        CLEAR     20  17  88 W8        29.94R WCI  10
Mt Sinai Harb    N/A    N/A N/A N/A W13G21      N/A
Westhampton    CLEAR     13  11  92 CALM      29.93S FOG
East Hampton   FAIR      27  19  71 W13G20    29.90S WCI  16
Southold         N/A     30  21  69 W13         N/A  WCI  20
Montauk          N/A     31  22  69 W14G24    29.90R WCI  21
$$

NYZ052-065-067-161000-
HUDSON VALLEY

CITY           SKY/WX    TMP DP  RH WIND       PRES   REMARKS
White Plains   CLEAR     21  16  81 W6        29.90R WCI  13
Larchmont Harb   N/A    N/A N/A N/A SW14        N/A
Croton On Huds   N/A    N/A N/A N/A SW9         N/A
Somers           N/A     19  16  86 W5          N/A  WCI  13
Brewster         N/A     18  16  93 S2          N/A
Newburgh       NOT AVBL
Montgomery     CLEAR     14  11  87 SW7       29.90R WCI   4
Otisville        N/A     18  14  86 S3          N/A
Warwick          N/A     23  16  74 W8          N/A  WCI  14
Suffern          N/A     25  16  68 W8          N/A  WCI  16
Poughkeepsie   PTCLDY    20  14  77 SW5       29.91S WCI  13
Albany         PTCLDY    17  13  84 S5        29.85R WCI  10
$$

NJZ001-105-106-008-010-013-015-019>022-104-161000-
NEW JERSEY

CITY           SKY/WX    TMP DP  RH WIND       PRES   REMARKS
Newark/Liberty PTCLDY    22  16  78 SW8       29.98R WCI  12
Teterboro      CLEAR     21  15  78 S8        29.96R WCI  11
Caldwell       CLEAR     21  16  81 SW5       29.97R WCI  15
Somerville     CLEAR      8   6  92 CALM      29.98R FOG
Linden         FAIR      22  17  82 CALM      29.99R
Perth Amboy      N/A    N/A N/A N/A W9          N/A
Sussex         CLEAR     18  14  84 SW9       29.92R WCI   7
Andover        NOT AVBL
Trenton        CLEAR     22  17  81 W5        30.00R WCI  16
Millville      CLEAR     16  14  92 W3        30.06R FOG
Atlantic City  CLEAR     25  20  81 W8        30.04R WCI  16
Wrightstown    CLEAR     21  17  85 W9        29.99R WCI  11
Toms River     CLEAR     15  13  91 W6        30.02R WCI   6
Belmar         CLEAR     18  16  92 W6        30.01R WCI  10
$$

PAZ047>061-062-071-161000-
EASTERN PENNSYLVANIA

CITY           SKY/WX    TMP DP  RH WIND       PRES   REMARKS
Philadelphia   MOCLDY    25  18  74 W9        30.06R WCI  15
Allentown      CLEAR     17  12  80 SW7       29.97S WCI   8
Scranton       PTCLDY    21  13  71 SW6       29.91S WCI  13
$$

CTZ002-004>006-009-010-012-RIZ004-006-007-MAZ004-011-015-161000-
SOUTHERN NEW ENGLAND
 IN CT

CITY           SKY/WX    TMP DP  RH WIND       PRES   REMARKS
Bradley INTL   PTCLDY    17  13  84 SW9       29.86S WCI   6
Hartford       CLEAR     21  15  78 W6        29.89R WCI  13
Danbury        CLEAR     16  13  88 W5        29.90R WCI   9
Wtrbury/Oxford CLEAR     17  15  92 W8        29.86R WCI   7
Norwalk Harbor   N/A    N/A N/A N/A W10         N/A
Bridgeport     CLEAR     21  16  81 W6        29.93R WCI  13
Meriden        CLEAR     15  13  91 SW3       29.90R
New Haven      CLEAR     23  17  78 NW5       29.91S WCI  17
Chester        FAIR      21  16  79 W8        29.86R WCI  12
Groton         CLEAR     22  16  78 W6        29.89R WCI  14
Wilimantic     CLEAR     16  12  84 CALM      29.87R

 IN RI

CITY           SKY/WX    TMP DP  RH WIND       PRES   REMARKS
Providence     CLEAR     19  16  88 W5        29.86R WCI  12
Block Island   FLURRIES  26  21  81 W17G23    29.87R WCI  13
Westerly       CLEAR     21  17  84 W5        29.89R WCI  15
 IN MA

CITY           SKY/WX    TMP DP  RH WIND       PRES   REMARKS
Boston         MOCLDY    23  15  71 W13       29.82S WCI  11
Worcester      CLEAR     17  12  80 W13       29.76R WCI   4
Westfield      CLEAR     15  13  91 S3        29.85R
Provincetown   CLOUDY    28  22  78 W18G25    29.80R WCI  15
Nantucket      PTCLDY    26  23  88 W12       29.81S WCI  16
$$

ANZ330-335-338-340-345-350-353-355-161000-
COASTAL MARINE OBSERVATIONS


STATION/POSITION TIME  SKY/WX   TEMP    WIND        PRES    VSBY  WAVE
                                AIR SEA DIR/SP/G                  HT/PER
                 (UTC)          (F)     (DEG/KT/KT) (MB)    (MI)  (FT/S)
NY HARB ENTRANCE 0750            32 50  280/ 25/ 33 1013.4          3/ 4
20 S FIRE ISLAND 0750            34 51  290/ 29/ 33 1013.3          7/ 6
GREAT SOUTH BAY  NOT AVBL
HUDSON CANYON    0750            38 56  290/ 29/ 37 1013.3          9/ 7
KINGS POINT      0836            28 41  320/ 12/ 17 1015.0
EXECUTION ROCKS  0830            29     250/ 16/ 19   N/A
WESTERN LI SOUND NOT AVBL
CENTRAL LI SOUND 0800            30     280/ 21/ 27   N/A           3
ROBBINS REEF     0842            25     270/ 15/ 19 1015.5
$$


>>>>>>>>>>>>>>>>>>>>>>>>>>>> KEY <<<<<<<<<<<<<<<<<<<<<<<<<<<
>                                                          <
>     SKY/WX - Sky Condition/Present Weather               <
>     TMP    - Temperature in Fahrenheit                   <
>     DP     - Dew Point in Fahrenheit                     <
>     RH     - Relative Humidity in Percent                <
>     WIND   - Direction (from) and Speed in MPH           <
>     PRES   - Mean Sea Level Pressure (inches of Hg)      <
>     WCI    - Wind Chill Index                            <
>     VSB    - VISIBILITY IN MILES                         <
>     HX     - HEAT INDEX                                  <
>     TC     - TEMPERATURE IN CELSIUS                      <
>     VRB    - VARIABLE WIND DIRECTION                     <
>                                                          <
>>>>>>>>>>>>>>>>>>>>>>>>>>>> KEY <<<<<<<<<<<<<<<<<<<<<<<<<<<




USA.gov is the U.S. government's official web portal to all federal, state and local government web resources and services.